Lake Wallenpaupack Weather Center

Moon Phase Calendar



Lake Wallenpaupack Water Level
Online Cameras

 


      

Current Conditions in Tanglewood
11/30/2020 3:17:07 PM

53°F
Feels Like 48
Clouds
Humidity
96%
Pressure
29.41"
Wind
10.9 mph (SSE)
Dew Point
52°F
UV Index
0/10 (Low)
Visibility
0 mi

Hourly Forecast

Date & Time Mon, Nov 30
3:00 PM
Mon, Nov 30
4:00 PM
Mon, Nov 30
5:00 PM
Mon, Nov 30
6:00 PM
Mon, Nov 30
7:00 PM
Mon, Nov 30
8:00 PM
Mon, Nov 30
9:00 PM
Mon, Nov 30
10:00 PM
Mon, Nov 30
11:00 PM
Tue, Dec 1
12:00 AM
Tue, Dec 1
1:00 AM
Tue, Dec 1
2:00 AM
Tue, Dec 1
3:00 AM
Tue, Dec 1
4:00 AM
Tue, Dec 1
5:00 AM
Tue, Dec 1
6:00 AM
Tue, Dec 1
7:00 AM
Tue, Dec 1
8:00 AM
Tue, Dec 1
9:00 AM
Tue, Dec 1
10:00 AM
Tue, Dec 1
11:00 AM
Tue, Dec 1
12:00 PM
Tue, Dec 1
1:00 PM
Tue, Dec 1
2:00 PM
Tue, Dec 1
3:00 PM
Tue, Dec 1
4:00 PM
Tue, Dec 1
5:00 PM
Tue, Dec 1
6:00 PM
Tue, Dec 1
7:00 PM
Tue, Dec 1
8:00 PM
Tue, Dec 1
9:00 PM
Tue, Dec 1
10:00 PM
Tue, Dec 1
11:00 PM
Wed, Dec 2
12:00 AM
Wed, Dec 2
1:00 AM
Wed, Dec 2
2:00 AM
Wed, Dec 2
3:00 AM
Wed, Dec 2
4:00 AM
Wed, Dec 2
5:00 AM
Wed, Dec 2
6:00 AM
Wed, Dec 2
7:00 AM
Wed, Dec 2
8:00 AM
Wed, Dec 2
9:00 AM
Wed, Dec 2
10:00 AM
Wed, Dec 2
11:00 AM
Wed, Dec 2
12:00 PM
Wed, Dec 2
1:00 PM
Wed, Dec 2
2:00 PM
Condition
Rain

Rain

Clouds

Rain

Rain

Rain

Clouds

Clouds

Clouds

Clouds

Clouds

Clouds

Clouds

Clouds

Clouds

Clouds

Clouds

Clouds

Rain

Rain

Rain

Rain

Rain

Clouds

Clouds

Clouds

Clouds

Clouds

Clouds

Clouds

Clouds

Clouds

Clouds

Clouds

Clouds

Clouds

Clouds

Clouds

Clouds

Clouds

Snow

Clouds

Clouds

Clouds

Clouds

Clouds

Clouds

Clouds
Temperature 53°F56°F57°F57°F56°F55°F54°F52°F48°F46°F47°F47°F46°F43°F42°F41°F42°F42°F43°F43°F42°F39°F37°F36°F36°F35°F34°F33°F32°F31°F30°F30°F30°F30°F30°F31°F31°F30°F30°F30°F30°F31°F32°F34°F36°F36°F36°F37°F
Feels Like 48°F50°F53°F54°F55°F53°F52°F48°F45°F42°F43°F43°F41°F38°F36°F35°F35°F34°F33°F33°F31°F29°F27°F26°F25°F25°F24°F22°F22°F21°F20°F20°F21°F21°F21°F21°F21°F20°F20°F20°F20°F20°F22°F24°F25°F26°F26°F26°F
Cloudiness 100%100%100%100%100%93%96%94%85%79%83%100%100%93%79%68%73%95%62%51%43%54%61%100%100%99%97%93%89%74%47%55%65%71%74%100%98%93%94%94%95%100%100%100%97%97%98%95%
Visibility 0 mi3 mi4 mi6 mi6 mi6 mi6 mi6 mi6 mi6 mi6 mi6 mi6 mi6 mi6 mi6 mi6 mi6 mi6 mi6 mi6 mi6 mi2 mi6 mi6 mi6 mi6 mi6 mi6 mi6 mi6 mi6 mi6 mi6 mi6 mi6 mi6 mi6 mi6 mi2 mi3 mi6 mi6 mi6 mi6 mi6 mi6 mi6 mi
Precipitation 100%100%80%100%100%45%45%41%26%22%22%0%0%0%0%0%0%55%75%89%100%100%97%26%22%18%11%7%7%0%0%0%0%0%0%17%14%8%15%25%25%38%38%37%33%33%29%21%
Humidity 96%95%92%94%94%95%94%91%92%92%88%88%89%92%93%91%86%87%81%76%77%84%90%83%83%86%89%93%94%94%94%95%95%95%95%94%94%94%94%96%96%95%94%87%82%81%80%78%
Dew Point 52°F54°F55°F55°F55°F54°F52°F49°F46°F44°F44°F43°F43°F41°F40°F39°F39°F38°F37°F36°F36°F35°F35°F31°F30°F29°F28°F28°F26°F25°F25°F25°F25°F25°F25°F25°F25°F25°F25°F26°F26°F26°F26°F27°F27°F27°F27°F27°F
Pressure 29.41"29.38"29.35"29.32"29.35"29.38"29.38"29.38"29.41"29.41"29.44"29.44"29.44"29.44"29.47"29.47"29.47"29.5"29.5"29.5"29.5"29.5"29.53"29.56"29.56"29.62"29.65"29.68"29.71"29.71"29.71"29.74"29.74"29.77"29.77"29.77"29.8"29.8"29.83"29.85"29.85"29.88"29.88"29.91"29.91"29.91"29.94"29.94"
Wind Speed 10.9 mph13.4 mph10.7 mph7.8 mph5.3 mph4.8 mph4.7 mph5.6 mph4.3 mph4.6 mph4.1 mph4.2 mph5.2 mph6.1 mph6.4 mph6.5 mph7.8 mph8.5 mph12.3 mph12.6 mph14 mph13 mph11.5 mph12.8 mph12.8 mph12.1 mph11.5 mph11.5 mph11.1 mph10.7 mph10.4 mph10.3 mph10.1 mph9.8 mph10.4 mph11 mph10.6 mph10.2 mph10.9 mph10.8 mph11.6 mph11.9 mph12.1 mph11.6 mph12.4 mph11.7 mph12 mph12.5 mph
Wind
Direction
151°
SSE
174°
S
180°
S
199°
SSW
193°
SSW
210°
SSW
236°
SW
251°
WSW
238°
WSW
217°
SW
195°
SSW
171°
S
182°
S
181°
S
180°
S
178°
S
176°
S
176°
S
186°
S
200°
SSW
206°
SSW
209°
SSW
232°
SW
230°
SW
228°
SW
228°
SW
228°
SW
229°
SW
230°
SW
229°
SW
230°
SW
228°
SW
230°
SW
225°
SW
226°
SW
232°
SW
234°
SW
237°
WSW
238°
WSW
239°
WSW
241°
WSW
243°
WSW
248°
WSW
249°
WSW
259°
W
256°
WSW
257°
WSW
256°
WSW

Daily Forecast

Date High Low Precip. Humidity
Today
Nov 30

Rain
57 °F
36 °F
100%
92%
Tuesday
Dec 1

Rain
47 °F
30 °F
100%
77%
Wednesday
Dec 2

Snow
36 °F
30 °F
37%
87%
Thursday
Dec 3

Clear
42 °F
30 °F
0%
77%
Friday
Dec 4

Rain
47 °F
34 °F
31%
59%
Saturday
Dec 5

Clouds
40 °F
30 °F
5%
80%
Sunday
Dec 6

Clouds
37 °F
28 °F
34%
86%
Monday
Dec 7

Snow
32 °F
20 °F
41%
90%
Tuesday
Dec 8

Clouds
33 °F
19 °F
0%
85%
Wednesday
Dec 9

Snow
36 °F
27 °F
39%
81%
Thursday
Dec 10

Rain
46 °F
29 °F
49%
71%
Friday
Dec 11

Clouds
45 °F
34 °F
0%
80%
Saturday
Dec 12

Snow
37 °F
28 °F
36%
82%
Sunday
Dec 13

Clouds
29 °F
21 °F
11%
86%
Monday
Dec 14

Rain
43 °F
24 °F
100%
82%
Tuesday
Dec 15

Rain
38 °F
27 °F
100%
92%


Temperature 8-14 Day Outlook



Precipitation 8-14 Day Outlook




Quick Links
Lake Wallenpaupack News
Lake Wallenpaupack Photos
Lake Wallenpaupack Videos




About Us
Contact Us
Site Map
Search Site
Advertise With Us
   
Wallenpaupack.USLakes.info
THE LAKE WALLENPAUPACK WEBSITE

Copyright 2020, Lakes Online
Privacy    |    Legal